Weather reports worldwide

Advertisment
Bastia, France (7790): temperature & dewpoint: 10.09.2019 05:00:00 - 16.09.2019 05:00:00 (CEST)Bastia, France (7790): temperature 5cm: 10.09.2019 05:00:00 - 16.09.2019 05:00:00 (CEST)Bastia, France (7790): temperature -20cm & temperature -100cm: 10.09.2019 05:00:00 - 16.09.2019 05:00:00 (CEST)Bastia, France (7790): wind speed & gusts: 10.09.2019 05:00:00 - 16.09.2019 05:00:00 (CEST)Bastia, France (7790): wind direction: 10.09.2019 05:00:00 - 16.09.2019 05:00:00 (CEST)Bastia, France (7790): reduced air pressure: 10.09.2019 05:00:00 - 16.09.2019 05:00:00 (CEST)Bastia, France (7790): visibility: 10.09.2019 05:00:00 - 16.09.2019 05:00:00 (CEST)Bastia, France (7790): sunshine duration: 10.09.2019 05:00:00 - 16.09.2019 05:00:00 (CEST)Bastia, France (7790): precipitation: 10.09.2019 05:00:00 - 16.09.2019 05:00:00 (CEST)
Date & Time tt [°C] td [°C] tt 5cm [°C] tt -20cm [°C] tt -100cm [°C] ff [km/h] ff [kn] fx [km/h] fx [kn] dd ppp [hPa] vv [km] sd [min] rr [mm]
16.09.2019 05:00:00 - - - - - - - - - - - - - -
16.09.2019 04:00:00 - - 15,9 25,3 23,9 8 4 12 6 SW - 52 0 -
16.09.2019 03:00:00 17,8 15,4 14,6 25,3 24,0 8 4 10 5 SW 1020,7 54 0 0,0
16.09.2019 02:00:00 18,2 15,8 14,1 25,3 24,0 7 4 9 5 SW 1021,1 50 - 0,0
16.09.2019 01:00:00 19,1 16,1 16,5 25,3 24,0 8 4 11 6 WSW 1021,1 57 0 0,0
16.09.2019 00:00:00 18,7 16,3 15,5 25,3 23,9 7 4 12 6 SSW 1021,1 54 0 0,0
15.09.2019 23:00:00 19,9 16,7 15,9 25,2 24,0 5 3 7 4 SW 1021,5 59 0 0,0
15.09.2019 22:00:00 - - 17,0 25,2 24,0 5 3 8 5 SSW - 55 0 -
15.09.2019 21:00:00 20,4 17,4 16,5 25,1 24,0 5 3 6 3 SW 1021,6 49 0 -
15.09.2019 20:00:00 22,3 17,7 18,6 25,0 24,0 5 3 8 4 S 1021,6 8 0 0,0
15.09.2019 19:00:00 24,8 17,3 24,8 25,0 24,0 3 2 10 5 ESE 1021,7 60 0 0,0
15.09.2019 18:00:00 25,9 15,6 27,9 24,9 24,0 8 5 21 11 NE 1021,9 58 36 0,0
15.09.2019 17:00:00 27,2 16,5 31,3 24,8 24,0 7 4 16 9 ENE 1022,0 49 40 0,0
15.09.2019 16:00:00 26,8 16,7 33,2 24,8 24,0 9 5 19 10 E 1022,4 48 36 0,0
15.09.2019 15:00:00 27,8 17,6 33,3 24,7 24,0 11 6 27 14 E 1022,8 49 38 0,0
15.09.2019 14:00:00 27,5 17,4 37,8 24,7 24,0 9 5 21 12 ESE 1023,0 46 60 0,0
15.09.2019 13:00:00 27,3 17,8 35,7 24,8 24,0 13 7 24 13 E 1023,7 47 60 0,0
15.09.2019 12:00:00 27,8 19,1 37,0 24,8 24,0 11 6 21 11 ESE 1024,1 60 60 0,0
15.09.2019 11:00:00 27,6 18,9 33,8 24,9 24,0 7 4 16 8 E 1024,5 60 60 0,0
15.09.2019 10:00:00 25,6 13,8 27,5 24,9 24,0 6 3 11 6 S 1024,3 42 60 0,0
15.09.2019 09:00:00 21,9 13,5 19,8 25,0 24,0 8 4 11 6 SSW 1024,3 47 60 0,0
15.09.2019 08:00:00 18,1 12,3 15,0 25,0 24,0 8 4 11 6 SW 1024,3 48 28 0,0
15.09.2019 07:00:00 16,6 11,1 14,4 25,1 24,0 7 4 10 5 SSW 1024,0 60 0 -
15.09.2019 06:00:00 16,7 11,2 14,3 25,1 24,0 8 4 11 6 SSW 1023,5 60 0 -
15.09.2019 05:00:00 16,8 10,9 15,1 25,2 24,0 9 5 13 7 SW 1023,9 60 0 -
15.09.2019 04:00:00 17,2 10,8 15,3 25,2 24,0 8 4 16 8 SW 1023,8 60 0 0,0
15.09.2019 03:00:00 17,5 10,6 14,3 25,3 24,0 9 5 11 6 SW 1024,0 60 - 0,0
15.09.2019 02:00:00 17,3 10,7 15,2 25,3 24,0 10 5 13 7 SW 1024,3 60 0 0,0
15.09.2019 01:00:00 17,7 10,6 15,2 25,3 24,0 9 5 11 6 SW 1024,6 60 0 0,0
15.09.2019 00:00:00 17,8 10,7 13,3 25,2 24,0 8 5 11 6 SW 1024,7 60 0 0,0
14.09.2019 23:00:00 18,7 10,3 14,3 25,2 24,0 6 4 11 6 SW 1024,9 60 0 0,0
14.09.2019 22:00:00 19,5 11,5 15,3 25,1 24,0 7 4 11 6 WSW 1024,7 60 0 0,0
14.09.2019 21:00:00 20,5 12,5 15,6 25,1 24,0 7 4 9 5 SW 1024,5 60 0 0,0
14.09.2019 20:00:00 21,3 14,5 18,2 25,0 24,0 6 3 12 6 SW 1024,3 55 0 0,0
14.09.2019 19:00:00 26,4 13,8 28,6 24,9 24,0 5 3 11 6 E 1023,8 60 60 0,0
14.09.2019 18:00:00 27,5 12,3 27,8 24,8 24,0 8 4 14 7 N 1024,1 42 29 0,0
14.09.2019 17:00:00 27,3 12,5 29,3 24,8 24,0 10 6 32 18 NNE 1024,5 49 49 0,0
14.09.2019 16:00:00 28,5 13,2 37,4 24,7 24,0 8 5 28 15 NE 1024,9 29 60 0,0
14.09.2019 15:00:00 28,6 13,3 39,6 24,7 24,0 13 7 23 13 NNE 1025,4 52 60 0,0
14.09.2019 14:00:00 28,2 12,5 39,2 24,7 24,0 11 6 33 18 NNE 1026,0 33 60 0,0
14.09.2019 13:00:00 28,1 13,6 38,5 24,8 24,0 13 7 43 23 NNE 1026,4 32 60 0,0
14.09.2019 12:00:00 28,4 12,3 35,9 24,8 24,0 18 10 25 14 NE 1026,5 32 60 0,0
14.09.2019 11:00:00 26,8 17,0 34,2 24,9 24,0 12 7 22 12 N 1026,7 38 60 0,0
14.09.2019 10:00:00 26,5 16,1 29,6 24,9 24,0 6 4 16 8 N 1026,8 44 60 0,0
14.09.2019 09:00:00 24,1 11,8 21,4 25,0 24,0 3 2 11 6 NW 1026,7 49 60 0,0
14.09.2019 08:00:00 19,4 10,9 14,7 25,1 24,0 7 4 11 6 WSW 1026,5 60 40 0,0
14.09.2019 07:00:00 17,3 10,4 13,6 25,1 24,0 8 4 13 7 SSW 1026,1 52 0 0,0
14.09.2019 06:00:00 16,2 11,1 13,6 25,2 24,0 8 5 10 6 SW 1025,8 47 0 0,0
14.09.2019 05:00:00 16,5 11,0 14,5 25,2 24,0 9 5 14 8 SW 1025,7 49 0 -
14.09.2019 04:00:00 16,7 11,4 14,6 25,2 24,0 10 6 15 8 SW 1025,8 47 0 -
14.09.2019 03:00:00 17,0 11,5 14,4 25,3 24,1 11 6 14 7 SW 1026,1 44 0 0,0
14.09.2019 02:00:00 - - 14,7 25,3 24,0 8 4 11 6 SW - 45 0 0,0
14.09.2019 01:00:00 16,9 12,4 14,7 25,3 24,0 7 4 13 7 SW 1026,7 42 0 0,0
14.09.2019 00:00:00 17,9 11,9 15,7 25,3 24,1 9 5 13 7 SW 1027,0 40 0 0,0
13.09.2019 23:00:00 18,1 11,9 14,2 25,2 24,0 8 5 10 6 WSW 1027,1 40 0 0,0
13.09.2019 22:00:00 18,0 12,9 12,5 25,1 24,0 9 5 11 6 SW 1026,8 36 0 0,0
13.09.2019 21:00:00 19,5 13,4 15,3 25,1 24,1 6 4 11 6 SW 1026,8 34 0 0,0
13.09.2019 20:00:00 21,3 14,7 16,7 25,0 24,0 6 4 8 5 SW 1026,5 33 1 0,0
13.09.2019 19:00:00 25,6 14,7 28,6 24,9 24,1 5 3 11 6 N 1026,2 44 60 0,0
13.09.2019 18:00:00 27,0 13,7 34,3 24,8 24,0 6 4 17 9 N 1026,4 27 60 0,0
13.09.2019 17:00:00 27,7 12,1 36,5 24,7 24,0 9 5 20 11 N 1026,6 57 60 0,0
13.09.2019 16:00:00 28,4 11,5 38,8 24,7 24,1 10 5 32 17 NE 1027,0 33 60 0,0
13.09.2019 15:00:00 28,1 14,0 39,4 24,7 24,0 11 6 24 13 NNE 1027,4 25 60 0,0
13.09.2019 14:00:00 28,1 12,8 38,9 24,7 24,1 10 5 22 12 NNE 1027,9 18 60 0,0
13.09.2019 13:00:00 27,5 14,2 37,5 24,7 24,0 11 6 25 14 N 1028,1 25 60 0,0
13.09.2019 12:00:00 27,2 14,9 35,2 24,8 24,1 12 6 24 13 N 1028,4 30 60 0,0
13.09.2019 11:00:00 26,7 14,5 32,3 24,9 24,1 14 8 30 16 N 1028,4 20 60 0,0
13.09.2019 10:00:00 25,9 15,9 27,1 24,9 24,1 16 8 24 13 N 1028,5 31 60 0,0
13.09.2019 09:00:00 21,7 12,5 19,9 25,0 24,1 8 4 12 6 SW 1028,3 20 60 0,0
13.09.2019 08:00:00 17,8 11,4 14,3 25,1 24,1 8 4 14 7 SW 1028,0 60 40 0,0
13.09.2019 07:00:00 16,0 10,5 13,4 25,1 24,1 9 5 11 6 SW 1028,0 55 0 0,0
13.09.2019 06:00:00 17,3 10,4 14,1 25,1 24,1 10 5 14 8 SW 1027,8 60 0 0,0
13.09.2019 05:00:00 16,5 10,8 14,5 25,2 24,1 9 5 14 8 SW 1027,4 60 0 0,0
13.09.2019 04:00:00 16,9 11,0 14,7 25,2 24,1 9 5 13 7 SW 1027,5 60 0 0,0
13.09.2019 03:00:00 17,1 10,9 15,1 25,3 24,1 9 5 14 8 SW 1027,5 60 0 0,0
13.09.2019 02:00:00 17,5 10,8 15,5 25,3 24,1 9 5 14 8 SW 1027,5 60 0 0,0
13.09.2019 01:00:00 18,6 9,9 15,7 25,3 24,1 8 5 14 7 WSW 1027,6 60 0 0,0
13.09.2019 00:00:00 18,0 10,8 15,2 25,3 24,1 9 5 14 7 SSW 1027,5 60 0 0,0
12.09.2019 23:00:00 19,0 10,5 13,2 25,2 24,1 8 4 10 5 W 1027,4 59 0 -
12.09.2019 22:00:00 18,6 10,9 13,8 25,2 24,1 3 2 11 6 WSW 1027,2 60 0 0,0
12.09.2019 21:00:00 19,7 12,5 15,4 25,1 24,1 8 4 10 6 SW 1027,0 59 0 0,0
12.09.2019 20:00:00 21,9 13,5 16,1 25,0 24,1 4 2 12 6 W 1026,6 59 3 0,0
12.09.2019 19:00:00 25,9 14,7 29,0 24,9 24,1 9 5 19 10 NNW 1026,6 49 60 0,0
12.09.2019 18:00:00 26,5 16,4 32,4 24,9 24,1 14 7 24 13 NNW 1026,7 28 60 0,0
12.09.2019 17:00:00 27,4 15,1 34,5 24,8 24,1 16 9 27 15 N 1026,7 20 60 0,0
12.09.2019 16:00:00 28,0 15,0 36,5 24,8 24,1 16 9 29 16 N 1026,9 24 60 0,0
12.09.2019 15:00:00 28,9 13,6 38,3 24,8 24,1 15 8 26 14 N 1026,8 25 60 0,0
12.09.2019 14:00:00 28,3 12,6 37,8 24,8 24,1 16 8 27 15 N 1027,2 28 60 0,0
12.09.2019 13:00:00 28,3 13,4 36,8 24,8 24,1 16 9 30 16 N 1027,4 38 60 0,0
12.09.2019 12:00:00 26,9 18,2 34,5 24,9 24,1 15 8 27 15 N 1027,6 51 60 0,0
12.09.2019 11:00:00 26,4 14,8 33,9 24,9 24,1 15 8 25 14 N 1027,3 60 60 0,0
12.09.2019 10:00:00 25,8 12,6 27,7 25,0 24,1 4 2 8 5 SSW 1026,7 60 60 0,0
12.09.2019 09:00:00 22,0 12,3 21,3 25,1 24,1 7 4 10 5 SSW 1025,8 54 60 0,0
12.09.2019 08:00:00 19,7 11,2 13,9 25,1 24,2 10 5 18 10 SW 1025,1 55 41 0,0
12.09.2019 07:00:00 15,8 11,4 13,4 25,2 24,1 9 5 14 8 SW 1024,5 60 0 -
12.09.2019 06:00:00 16,9 11,6 13,9 25,2 24,1 9 5 17 9 SW 1024,0 60 0 -
12.09.2019 05:00:00 16,6 12,5 13,8 25,2 24,1 8 5 14 8 SW 1023,6 60 0 0,0
12.09.2019 04:00:00 17,7 13,2 14,8 25,3 24,1 8 4 16 9 SW 1023,4 60 0 0,0
12.09.2019 03:00:00 18,3 13,8 15,1 25,3 24,2 10 6 14 8 SW 1023,5 60 0 0,0
12.09.2019 02:00:00 18,0 14,5 12,8 25,3 24,2 8 4 13 7 WSW 1023,6 60 0 0,0
12.09.2019 01:00:00 18,0 14,9 12,9 25,3 24,2 6 4 11 6 WSW 1022,9 60 0 0,0
12.09.2019 00:00:00 17,9 14,2 13,9 25,3 24,2 4 2 11 6 N 1022,4 56 0 0,0
11.09.2019 23:00:00 18,5 15,2 15,2 25,3 24,2 6 4 9 5 WSW 1022,3 60 0 0,0
11.09.2019 22:00:00 19,7 15,1 14,8 25,2 24,2 5 3 11 6 W 1022,4 60 0 0,0
11.09.2019 21:00:00 19,6 15,9 15,8 25,1 24,2 7 4 8 5 SW 1022,1 60 0 0,0
11.09.2019 20:00:00 21,3 15,8 17,4 25,0 24,2 4 2 7 4 SW 1021,3 60 0 0,0
11.09.2019 19:00:00 24,6 15,2 25,6 24,9 24,2 4 2 14 7 ENE 1020,7 60 51 0,0
11.09.2019 18:00:00 25,6 15,3 31,8 24,8 24,2 9 5 18 10 E 1020,5 50 60 0,0
11.09.2019 17:00:00 26,7 15,4 36,0 24,7 24,2 8 4 18 10 ENE 1019,9 55 60 0,0
11.09.2019 16:00:00 26,4 14,8 36,1 24,7 24,2 11 6 27 14 E 1019,7 39 60 0,0
11.09.2019 15:00:00 26,9 15,0 37,2 24,7 24,2 13 7 24 13 E 1019,7 18 60 0,0
11.09.2019 14:00:00 27,0 16,6 38,1 24,7 24,2 12 7 22 12 ESE 1019,7 33 60 0,0
11.09.2019 13:00:00 27,2 14,9 36,6 24,7 24,2 8 5 24 13 E 1019,7 60 60 0,0
11.09.2019 12:00:00 26,0 14,8 34,5 24,7 24,2 11 6 22 12 N 1019,5 20 60 0,0
11.09.2019 11:00:00 25,2 14,9 32,1 24,8 24,2 9 5 24 13 N 1019,5 60 60 0,0
11.09.2019 10:00:00 24,9 16,1 26,2 24,8 24,2 6 4 20 11 NNE 1019,1 49 55 0,0
11.09.2019 09:00:00 23,6 15,9 21,5 24,9 24,3 14 8 20 11 N 1018,2 53 60 0,0
11.09.2019 08:00:00 19,2 16,2 16,1 24,9 24,3 8 4 13 7 WSW 1017,9 56 42 0,0
11.09.2019 07:00:00 17,2 15,5 14,9 25,0 24,2 9 5 12 6 WSW 1017,0 48 0 0,0
11.09.2019 06:00:00 16,8 15,0 14,9 25,0 24,3 8 4 12 6 SW 1016,8 52 0 0,0
11.09.2019 05:00:00 17,1 14,9 15,6 25,1 24,3 9 5 11 6 SW 1016,4 55 0 0,0
11.09.2019 04:00:00 17,3 15,1 15,9 25,1 24,3 9 5 13 7 SW 1016,6 57 0 0,0
11.09.2019 03:00:00 17,4 15,2 15,8 25,1 24,3 8 4 11 6 SW 1016,4 56 0 0,0
11.09.2019 02:00:00 17,3 15,1 14,0 25,1 24,3 7 4 11 6 SSW 1016,3 55 0 0,0
11.09.2019 01:00:00 17,4 15,2 13,1 25,1 24,3 4 2 9 5 WSW 1015,7 55 0 0,0
11.09.2019 00:00:00 18,6 16,0 15,1 25,1 24,3 4 2 10 5 W 1015,4 57 0 0,0
10.09.2019 23:00:00 18,6 15,8 17,3 25,1 24,3 8 4 9 5 SSW 1015,4 60 0 0,0
10.09.2019 22:00:00 19,5 15,8 16,6 25,1 24,3 6 3 9 5 SW 1015,1 59 0 0,0
10.09.2019 21:00:00 20,1 15,7 16,3 25,0 24,3 4 2 9 5 W 1014,5 57 0 0,0
10.09.2019 20:00:00 21,5 15,6 17,9 25,0 24,3 3 2 6 3 ESE 1013,8 2,4 0 0,0
10.09.2019 19:00:00 22,7 15,8 22,9 24,9 24,3 4 2 13 7 SSE 1013,5 60 0 0,0
10.09.2019 18:00:00 23,4 15,7 25,5 24,9 24,3 9 5 20 11 E 1013,2 51 4 0,0
10.09.2019 17:00:00 23,8 15,6 28,2 24,9 24,3 10 6 25 13 E 1013,1 60 37 0,0
10.09.2019 16:00:00 24,2 14,6 27,5 24,9 24,3 13 7 27 14 E 1013,2 60 5 0,0
10.09.2019 15:00:00 24,0 14,4 29,1 24,9 24,3 16 9 31 17 ESE 1013,5 38 29 0,0
10.09.2019 14:00:00 24,4 15,3 27,4 24,9 24,3 14 8 31 17 SE 1013,9 20 13 0,0
10.09.2019 13:00:00 23,4 14,7 24,9 24,9 24,3 16 8 30 16 SE 1014,1 48 0 0,0
10.09.2019 12:00:00 23,5 15,3 26,3 25,0 24,3 18 10 30 16 ESE 1014,3 41 22 0,0
10.09.2019 11:00:00 23,9 14,6 26,1 25,0 24,3 19 11 32 17 ESE 1014,4 20 40 0,0
10.09.2019 10:00:00 22,7 12,3 22,5 25,1 24,3 18 10 31 17 ESE 1014,4 46 0 0,0
10.09.2019 09:00:00 20,2 13,2 18,3 25,2 24,3 6 3 13 7 SSE 1014,1 56 1 0,0
10.09.2019 08:00:00 17,7 11,5 15,3 25,2 24,3 8 4 13 7 SSW 1014,6 59 12 0,0
10.09.2019 07:00:00 15,7 9,8 14,3 25,3 24,3 8 5 16 8 SSW 1014,2 60 0 0,0
10.09.2019 06:00:00 15,5 8,9 14,1 25,4 24,4 8 4 14 8 SSW 1014,4 60 0 0,0
10.09.2019 05:00:00 15,3 8,5 12,8 25,4 24,4 8 5 14 8 SSW 1014,6 60 0 -

tt = temperature
td = dewpoint
tt 5cm = temperature 5cm
tt -20cm = temperature -20cm
tt -100cm = temperature -100cm
ff = wind speed
fx = gusts
dd = wind direction
ppp = reduced air pressure
vv = visibility
sd = sunshine duration
rr = precipitation

Next stations